Regional Weather Roundup
Issued by NWS Burlington, VT

Current Version | Previous Version | Text Only | Print | Product List | Glossary Off
Versions: 1 2 3 4 5 6 7 8 9 10 11 12 13 14 15 16 17 18 19 20 21 22 23 24 25 26 27 28 29 30 31 32 33 34 35 36 37 38 39 40 41 42 43 44 45 46 47 48 49 50

000
ASUS41 KBTV 290330
RWRBTV
VERMONT REGIONAL WEATHER ROUNDUP
NATIONAL WEATHER SERVICE BURLINGTON VT
1000 PM EST WED JAN 28 2015

NOTE: "FAIR" INDICATES FEW OR NO CLOUDS BELOW 12,000 FEET WITH NO
SIGNIFICANT WEATHER AND/OR OBSTRUCTIONS TO VISIBILITY.

* THESE REPORTS ARE NOT UNDER NWS QUALITY CONTROL AND/OR DO NOT
  REPORT WEATHER SUCH AS PRECIPITATION AND FOG.

VTZ001>019-290400-
_____VERMONT_____


CITY           SKY/WX    TMP DP  RH WIND       PRES   REMARKS
BURLINGTON     PTCLDY     8  -6  52 CALM      30.28R
MONTPELIER     PTCLDY     0  -7  72 CALM      30.23S
MORRISVILLE    PTCLDY    -4  -9  79 CALM      30.25S
ST. JOHNSBURY*   N/A     -2  -7  79 MISG      30.24R
MIDDLEBURY*    FAIR       4  -3  72 CALM      30.27R
RUTLAND*       PTCLDY     1  -2  85 SE6       30.23R
SPRINGFIELD    CLEAR      2  -3  80 CALM      30.24R
HIGHGATE*      FAIR       2  -6  69 SE3       30.28S
NEWPORT*       FAIR      -4  -8  84 CALM      30.23S
BENNINGTON     CLEAR      2  -5  72 SW5       30.22R
MT. MANSFIELD*   N/A     21 N/A N/A CALM        N/A

_____LAKE CHAMPLAIN_____


CITY           SKY/WX    TMP DP  RH WIND       PRES   REMARKS
BURTON ISLAND*   N/A     10   5  79 SE2         N/A
COLCHESTER RF*   N/A     18   3  53 E3          N/A
DIAMOND ISL*     N/A     18   9  68 S3          N/A

$$

NYZ007-026>031-035-052-083-290400-
_____NORTHERN NEW YORK_____


CITY           SKY/WX    TMP DP  RH WIND       PRES   REMARKS
PLATTSBURGH    PTCLDY     2  -3  80 CALM      30.28S
SARANAC LAKE   MOCLDY    -8 -13  78 CALM      30.18S
MASSENA        CLEAR      2  -8  63 W3        30.33R
OGDENSBURG*    CLEAR      3  -6  66 S3        30.30S
POTSDAM*       CLEAR      7  -6  56 CALM      30.30R
WATERTOWN      PTCLDY    -1  -7  75 E3        30.31R
FT DRUM        PTCLDY     6  -7  54 S8        30.28S
ALBANY         CLEAR     11   0  61 N3        30.30R
GLENS FALLS    PTCLDY    -1  -6  79 CALM      30.29R

$$
NHZ002-005-011-290400-
_____NEW HAMPSHIRE_____


CITY           SKY/WX    TMP DP  RH WIND       PRES   REMARKS
LEBANON        CLEAR      4  -5  66 CALM      30.23R
KEENE          CLEAR      3   0  85 CALM      30.22R
MT WASHINGTON  CLEAR     10 -13  34 N32G41      N/A  WCI -12
PLYMOUTH       FAIR      13   0  54 W8        30.19S
WHITEFIELD     CLEAR    -11 -17  75 CALM      30.21R

$$

_____REGIONAL QUEBEC LOCATIONS_____


CITY           SKY/WX    TMP DP  RH WIND       PRES   REMARKS
MONTREAL       CLEAR     10  -6  48 SW9       30.29R
QUEBEC CITY    PTCLDY    12  -2  52 W5        30.20R
SHERBROOKE     CLEAR     -6  -9  84 E5        30.22S

_____REGIONAL ONTARIO LOCATIONS_____


CITY           SKY/WX    TMP DP  RH WIND       PRES   REMARKS
OTTAWA         CLEAR     10  -8  44 S7        30.29R

______KEY______
VSB  - VISIBILITY IN MILES
WCI  - WIND CHILL INDEX
HX   - HEAT INDEX
$$
NNNN



USA.gov is the U.S. government's official web portal to all federal, state and local government web resources and services.